| time (UTC) | temp F | wind direction | speed MPH | gust MPH | rain 1hr in | rain 24hr in | rain mn in | humidity % | barometer mb |
| 20260507163505 | 69 | 304 | 5.0 | 5.0 | 0.00 | 0.00 | 0.00 | 62 | 1018.3 |
| 20260507163005 | 69 | 309 | 4.0 | 5.0 | 0.00 | 0.00 | 0.00 | 60 | 1018.2 |
| 20260507162005 | 69 | 312 | 3.0 | 3.0 | 0.00 | 0.00 | 0.00 | 60 | 1018.0 |
| 20260507161505 | 69 | 311 | 2.0 | 3.0 | 0.00 | 0.00 | 0.00 | 60 | 1018.1 |
| 20260507161005 | 69 | 323 | 2.0 | 3.0 | 0.00 | 0.00 | 0.00 | 58 | 1018.2 |
| 20260507160505 | 70 | 310 | 3.0 | 4.0 | 0.00 | 0.00 | 0.00 | 57 | 1018.0 |
| 20260507160005 | 70 | 298 | 3.0 | 4.0 | 0.00 | 0.00 | 0.00 | 57 | 1018.1 |
| 20260507155005 | 72 | 228 | 3.0 | 5.0 | 0.00 | 0.00 | 0.00 | 55 | 1018.0 |
| 20260507154505 | 71 | 225 | 5.0 | 7.0 | 0.00 | 0.00 | 0.00 | 56 | 1017.9 |
| 20260507154005 | 71 | 231 | 6.0 | 9.0 | 0.00 | 0.00 | 0.00 | 57 | 1017.9 |
| 20260507153506 | 71 | 243 | 6.0 | 9.0 | 0.00 | 0.00 | 0.00 | 57 | 1018.3 |
| 20260507153005 | 71 | 248 | 4.0 | 6.0 | 0.00 | 0.00 | 0.00 | 57 | 1018.3 |
| 20260507151505 | 70 | 165 | 5.0 | 6.0 | 0.00 | 0.00 | 0.00 | 56 | 1018.1 |
| 20260507151005 | 70 | 142 | 6.0 | 8.0 | 0.00 | 0.00 | 0.00 | 56 | 1017.9 |
| 20260507150505 | 70 | 150 | 6.0 | 8.0 | 0.00 | 0.00 | 0.00 | 55 | 1018.0 |
| 20260507150006 | 70 | 153 | 6.0 | 8.0 | 0.00 | 0.00 | 0.00 | 54 | 1018.2 |
| 20260507145506 | 70 | 143 | 6.0 | 8.0 | 0.00 | 0.00 | 0.00 | 54 | 1018.1 |
| 20260507145005 | 71 | 143 | 6.0 | 7.0 | 0.00 | 0.00 | 0.00 | 53 | 1018.1 |
| 20260507144505 | 71 | 144 | 6.0 | 7.0 | 0.00 | 0.00 | 0.00 | 52 | 1018.0 |
| 20260507143503 | 72 | 171 | 4.0 | 7.0 | 0.00 | 0.00 | 0.00 | 51 | 1018.3 |
| 20260507143003 | 72 | 167 | 6.0 | 8.0 | 0.00 | 0.00 | 0.00 | 50 | 1018.2 |
| 20260507142503 | 72 | 178 | 6.0 | 8.0 | 0.00 | 0.00 | 0.00 | 50 | 1018.3 |
| 20260507142003 | 72 | 185 | 6.0 | 9.0 | 0.00 | 0.00 | 0.00 | 50 | 1018.2 |
| 20260507141502 | 72 | 184 | 6.0 | 9.0 | 0.00 | 0.00 | 0.00 | 50 | 1018.3 |
| 20260507140503 | 72 | 162 | 6.0 | 9.0 | 0.00 | 0.00 | 0.00 | 45 | 1018.2 |
| 20260507140003 | 72 | 144 | 9.0 | 11.0 | 0.00 | 0.00 | 0.00 | 48 | 1018.1 |
| 20260507135503 | 72 | 154 | 10.0 | 11.0 | 0.00 | 0.00 | 0.00 | 44 | 1018.0 |
| 20260507135003 | 73 | 169 | 10.0 | 11.0 | 0.00 | 0.00 | 0.00 | 43 | 1018.1 |
| 20260507134503 | 73 | 171 | 9.0 | 10.0 | 0.00 | 0.00 | 0.00 | 42 | 1018.1 |
| 20260507133503 | 73 | 156 | 11.0 | 12.0 | 0.00 | 0.00 | 0.00 | 41 | 1018.1 |
| 20260507133003 | 74 | 174 | 11.0 | 14.0 | 0.00 | 0.00 | 0.00 | 41 | 1018.2 |
| 20260507132503 | 73 | 162 | 12.0 | 14.0 | 0.00 | 0.00 | 0.00 | 42 | 1018.1 |
| 20260507131503 | 74 | 165 | 13.0 | 16.0 | 0.00 | 0.00 | 0.00 | 41 | 1017.9 |
| 20260507131003 | 74 | 150 | 13.0 | 16.0 | 0.00 | 0.00 | 0.00 | 40 | 1018.0 |
| 20260507130004 | 74 | 148 | 13.0 | 15.0 | 0.00 | 0.00 | 0.00 | 41 | 1018.1 |
| 20260507125503 | 75 | 162 | 12.0 | 16.0 | 0.00 | 0.00 | 0.00 | 42 | 1018.1 |
| 20260507125004 | 75 | 151 | 12.0 | 16.0 | 0.00 | 0.00 | 0.00 | 42 | 1018.3 |
| 20260507124503 | 74 | 143 | 12.0 | 15.0 | 0.00 | 0.00 | 0.00 | 46 | 1018.4 |
| 20260507124004 | 74 | 143 | 12.0 | 15.0 | 0.00 | 0.00 | 0.00 | 46 | 1018.4 |
| 20260507123503 | 74 | 121 | 12.0 | 15.0 | 0.00 | 0.00 | 0.00 | 49 | 1018.6 |
| 20260507123003 | 74 | 122 | 12.0 | 14.0 | 0.00 | 0.00 | 0.00 | 50 | 1018.6 |
| 20260507122503 | 74 | 152 | 11.0 | 13.0 | 0.00 | 0.00 | 0.00 | 51 | 1018.5 |
| 20260507122004 | 73 | 162 | 11.0 | 15.0 | 0.00 | 0.00 | 0.00 | 50 | 1018.3 |
| 20260507121503 | 73 | 165 | 11.0 | 15.0 | 0.00 | 0.00 | 0.00 | 48 | 1018.5 |
| 20260507121003 | 74 | 155 | 12.0 | 14.0 | 0.00 | 0.00 | 0.00 | 48 | 1018.6 |
| 20260507120004 | 74 | 177 | 14.0 | 17.0 | 0.00 | 0.00 | 0.00 | 48 | 1018.6 |
| 20260507115503 | 74 | 167 | 14.0 | 17.0 | 0.00 | 0.00 | 0.00 | 47 | 1018.6 |
| 20260507115003 | 73 | 154 | 14.0 | 17.0 | 0.00 | 0.00 | 0.00 | 50 | 1018.6 |
| 20260507114503 | 73 | 169 | 13.0 | 15.0 | 0.00 | 0.00 | 0.00 | 49 | 1018.5 |
| 20260507114004 | 73 | 188 | 12.0 | 14.0 | 0.00 | 0.00 | 0.00 | 48 | 1018.4 |
| 20260507113503 | 73 | 182 | 11.0 | 13.0 | 0.00 | 0.00 | 0.00 | 49 | 1018.5 |
| 20260507112503 | 73 | 150 | 11.0 | 15.0 | 0.00 | 0.00 | 0.00 | 48 | 1018.6 |
| 20260507112003 | 73 | 147 | 12.0 | 15.0 | 0.00 | 0.00 | 0.00 | 45 | 1018.6 |
| 20260507111003 | 74 | 144 | 12.0 | 15.0 | 0.00 | 0.00 | 0.00 | 43 | 1018.5 |
| 20260507110503 | 74 | 152 | 12.0 | 17.0 | 0.00 | 0.00 | 0.00 | 42 | 1018.5 |
| 20260507110003 | 74 | 147 | 13.0 | 17.0 | 0.00 | 0.00 | 0.00 | 40 | 1018.7 |
| 20260507105503 | 74 | 146 | 13.0 | 15.0 | 0.00 | 0.00 | 0.00 | 41 | 1018.8 |
| 20260507104503 | 74 | 152 | 12.0 | 15.0 | 0.00 | 0.00 | 0.00 | 40 | 1018.6 |
| 20260507103504 | 74 | 134 | 13.0 | 17.0 | 0.00 | 0.00 | 0.00 | 40 | 1018.7 |
| 20260507102504 | 74 | 148 | 12.0 | 15.0 | 0.00 | 0.00 | 0.00 | 42 | 1018.9 |
| 20260507102003 | 74 | 138 | 13.0 | 15.0 | 0.00 | 0.00 | 0.00 | 42 | 1018.8 |
| 20260507101503 | 75 | 139 | 13.0 | 15.0 | 0.00 | 0.00 | 0.00 | 40 | 1018.7 |
| 20260507101003 | 75 | 148 | 12.0 | 15.0 | 0.00 | 0.00 | 0.00 | 41 | 1018.8 |
| 20260507100503 | 74 | 152 | 12.0 | 15.0 | 0.00 | 0.00 | 0.00 | 40 | 1018.7 |
| 20260507100004 | 74 | 145 | 12.0 | 15.0 | 0.00 | 0.00 | 0.00 | 39 | 1018.8 |
| 20260507095003 | 74 | 137 | 12.0 | 15.0 | 0.00 | 0.00 | 0.00 | 40 | 1018.4 |
| 20260507094503 | 75 | 144 | 12.0 | 14.0 | 0.00 | 0.00 | 0.00 | 39 | 1018.5 |
| 20260507093503 | 75 | 168 | 10.0 | 12.0 | 0.00 | 0.00 | 0.00 | 40 | 1018.3 |
| 20260507092503 | 75 | 181 | 10.0 | 14.0 | 0.00 | 0.00 | 0.00 | 40 | 1018.4 |
| 20260507092004 | 75 | 162 | 11.0 | 12.0 | 0.00 | 0.00 | 0.00 | 40 | 1018.5 |
| 20260507091004 | 76 | 172 | 12.0 | 14.0 | 0.00 | 0.00 | 0.00 | 37 | 1018.4 |
| 20260507090504 | 77 | 167 | 12.0 | 14.0 | 0.00 | 0.00 | 0.00 | 35 | 1018.3 |
| 20260507090004 | 77 | 165 | 11.0 | 13.0 | 0.00 | 0.00 | 0.00 | 34 | 1018.3 |
| 20260507085503 | 77 | 151 | 12.0 | 15.0 | 0.00 | 0.00 | 0.00 | 36 | 1018.3 |
| 20260507085003 | 76 | 133 | 12.0 | 15.0 | 0.00 | 0.00 | 0.00 | 35 | 1018.4 |
| 20260507084503 | 77 | 148 | 11.0 | 13.0 | 0.00 | 0.00 | 0.00 | 35 | 1018.3 |
| 20260507083503 | 77 | 173 | 9.0 | 11.0 | 0.00 | 0.00 | 0.00 | 35 | 1018.3 |
| 20260507082503 | 76 | 156 | 9.0 | 11.0 | 0.00 | 0.00 | 0.00 | 36 | 1018.7 |
| 20260507081503 | 75 | 136 | 9.0 | 11.0 | 0.00 | 0.00 | 0.00 | 36 | 1018.4 |
| 20260507080504 | 75 | 150 | 7.0 | 8.0 | 0.00 | 0.00 | 0.00 | 37 | 1018.4 |
| 20260507080004 | 75 | 163 | 7.0 | 8.0 | 0.00 | 0.00 | 0.00 | 37 | 1018.5 |
| 20260507075503 | 75 | 148 | 7.0 | 9.0 | 0.00 | 0.00 | 0.00 | 40 | 1018.5 |
| 20260507075004 | 74 | 158 | 8.0 | 9.0 | 0.00 | 0.00 | 0.00 | 38 | 1018.5 |
| 20260507074004 | 74 | 169 | 7.0 | 8.0 | 0.00 | 0.00 | 0.00 | 37 | 1018.3 |
| 20260507073504 | 74 | 149 | 7.0 | 8.0 | 0.00 | 0.00 | 0.00 | 38 | 1018.2 |
| 20260507073004 | 74 | 170 | 8.0 | 10.0 | 0.00 | 0.00 | 0.00 | 39 | 1018.2 |
| 20260507072503 | 74 | 187 | 8.0 | 10.0 | 0.00 | 0.00 | 0.00 | 40 | 1018.4 |
| 20260507072003 | 73 | 177 | 8.0 | 10.0 | 0.00 | 0.00 | 0.00 | 41 | 1018.4 |
| 20260507071503 | 73 | 183 | 7.0 | 8.0 | 0.00 | 0.00 | 0.00 | 41 | 1018.4 |
| 20260507070008 | 73 | 200 | 4.0 | 5.0 | 0.00 | 0.00 | 0.00 | 42 | 1018.2 |
| 20260507065504 | 72 | 191 | 4.0 | 5.0 | 0.00 | 0.00 | 0.00 | 42 | 1018.2 |
| 20260507065004 | 72 | 178 | 3.0 | 4.0 | 0.00 | 0.00 | 0.00 | 46 | 1018.3 |
| 20260507064003 | 71 | 227 | 3.0 | 4.0 | 0.00 | 0.00 | 0.00 | 49 | 1018.4 |
| 20260507063503 | 70 | 225 | 3.0 | 4.0 | 0.00 | 0.00 | 0.00 | 50 | 1018.6 |
| 20260507063003 | 70 | 217 | 3.0 | 4.0 | 0.00 | 0.00 | 0.00 | 49 | 1018.5 |
| 20260507062004 | 69 | 163 | 3.0 | 3.0 | 0.00 | 0.00 | 0.00 | 52 | 1018.4 |
| 20260507061504 | 68 | 146 | 3.0 | 3.0 | 0.00 | 0.00 | 0.00 | 52 | 1018.3 |
| 20260507061004 | 67 | 149 | 3.0 | 3.0 | 0.00 | 0.00 | 0.00 | 57 | 1018.3 |
| 20260507060504 | 66 | 143 | 3.0 | 3.0 | 0.00 | 0.00 | 0.00 | 56 | 1018.4 |
| 20260507060003 | 66 | 131 | 2.0 | 3.0 | 0.00 | 0.00 | 0.00 | 56 | 1018.6 |
| 20260507055004 | 65 | 242 | 2.0 | 2.0 | 0.00 | 0.00 | 0.00 | 58 | 1018.4 |
| 20260507054504 | 63 | 257 | 2.0 | 2.0 | 0.00 | 0.00 | 0.00 | 61 | 1018.3 |
| 20260507054004 | 63 | 249 | 2.0 | 2.0 | 0.00 | 0.00 | 0.00 | 61 | 1018.2 |
| 20260507053503 | 63 | 231 | 2.0 | 3.0 | 0.00 | 0.00 | 0.00 | 64 | 1018.3 |
| 20260507052004 | 61 | 225 | 0.0 | 1.0 | 0.00 | 0.00 | 0.00 | 63 | 1018.4 |
| 20260507051504 | 61 | 225 | 0.0 | 1.0 | 0.00 | 0.00 | 0.00 | 70 | 1018.4 |
| 20260507051004 | 60 | 0 | 0.0 | 0.0 | 0.00 | 0.00 | 0.00 | 73 | 1018.3 |
| 20260507050504 | 59 | 225 | 0.0 | 2.0 | 0.00 | 0.00 | 0.00 | 75 | 1018.2 |
| 20260507050005 | 58 | 238 | 1.0 | 2.0 | 0.00 | 0.00 | 0.00 | 75 | 1018.1 |
| 20260507045004 | 56 | 270 | 1.0 | 2.0 | 0.00 | 0.00 | 0.00 | 77 | 1018.0 |
| 20260507044504 | 56 | 135 | 0.0 | 1.0 | 0.00 | 0.00 | 0.00 | 76 | 1017.8 |
| 20260507044004 | 55 | 202 | 1.0 | 2.0 | 0.00 | 0.00 | 0.00 | 77 | 1017.7 |
| 20260507043504 | 54 | 205 | 1.0 | 2.0 | 0.00 | 0.00 | 0.00 | 79 | 1017.7 |
| 20260507042504 | 54 | 329 | 1.0 | 2.0 | 0.00 | 0.00 | 0.00 | 79 | 1017.5 |
| 20260507042004 | 52 | 357 | 2.0 | 2.0 | 0.00 | 0.00 | 0.00 | 80 | 1017.4 |
| 20260507041504 | 53 | 27 | 2.0 | 2.0 | 0.00 | 0.00 | 0.00 | 78 | 1017.3 |
| 20260507041004 | 53 | 43 | 2.0 | 2.0 | 0.00 | 0.00 | 0.00 | 79 | 1017.2 |
| 20260507040504 | 53 | 45 | 2.0 | 2.0 | 0.00 | 0.00 | 0.00 | 81 | 1017.1 |
| 20260507040004 | 52 | 47 | 2.0 | 2.0 | 0.00 | 0.00 | 0.00 | 84 | 1017.1 |
| 20260507035504 | 51 | 68 | 2.0 | 3.0 | 0.00 | 0.00 | 0.00 | 86 | 1017.0 |
| 20260507035004 | 50 | 86 | 2.0 | 3.0 | 0.00 | 0.00 | 0.00 | 87 | 1017.0 |
| 20260507034505 | 49 | 84 | 2.0 | 4.0 | 0.00 | 0.00 | 0.00 | 87 | 1017.1 |
| 20260507034004 | 49 | 110 | 3.0 | 4.0 | 0.00 | 0.00 | 0.00 | 86 | 1017.1 |
| 20260507033504 | 49 | 122 | 3.0 | 4.0 | 0.00 | 0.00 | 0.00 | 86 | 1017.0 |
| 20260507033004 | 49 | 119 | 2.0 | 4.0 | 0.00 | 0.00 | 0.00 | 85 | 1017.0 |
| 20260507032504 | 49 | 143 | 2.0 | 3.0 | 0.00 | 0.00 | 0.00 | 84 | 1017.2 |
| 20260507032005 | 49 | 154 | 3.0 | 3.0 | 0.00 | 0.00 | 0.00 | 83 | 1017.3 |
| 20260507031504 | 49 | 161 | 1.0 | 3.0 | 0.00 | 0.00 | 0.00 | 82 | 1017.4 |
| 20260507031004 | 50 | 190 | 0.0 | 2.0 | 0.00 | 0.00 | 0.00 | 82 | 1017.4 |
| 20260507030504 | 50 | 60 | 1.0 | 2.0 | 0.00 | 0.00 | 0.00 | 82 | 1017.4 |
| 20260507030004 | 50 | 284 | 1.0 | 2.0 | 0.00 | 0.00 | 0.00 | 81 | 1017.2 |
| 20260507025504 | 51 | 291 | 2.0 | 2.0 | 0.00 | 0.00 | 0.00 | 80 | 1017.0 |
| 20260507025005 | 52 | 329 | 2.0 | 2.0 | 0.00 | 0.00 | 0.00 | 80 | 1017.0 |
| 20260507024504 | 52 | 358 | 2.0 | 2.0 | 0.00 | 0.00 | 0.00 | 81 | 1017.1 |
| 20260507024004 | 52 | 17 | 2.0 | 2.0 | 0.00 | 0.00 | 0.00 | 82 | 1017.0 |
| 20260507023504 | 51 | 35 | 2.0 | 2.0 | 0.00 | 0.00 | 0.00 | 82 | 1016.9 |
| 20260507023004 | 51 | 81 | 2.0 | 3.0 | 0.00 | 0.00 | 0.00 | 81 | 1016.8 |
| 20260507022504 | 52 | 119 | 2.0 | 3.0 | 0.00 | 0.00 | 0.00 | 82 | 1016.6 |
| 20260507022004 | 52 | 119 | 3.0 | 4.0 | 0.00 | 0.00 | 0.00 | 83 | 1016.6 |
| 20260507021504 | 51 | 118 | 2.0 | 4.0 | 0.00 | 0.00 | 0.00 | 85 | 1016.8 |
| 20260507021004 | 50 | 76 | 2.0 | 2.0 | 0.00 | 0.00 | 0.00 | 85 | 1016.8 |
| 20260507020005 | 50 | 90 | 2.0 | 3.0 | 0.00 | 0.00 | 0.00 | 84 | 1017.0 |
| 20260507015504 | 50 | 50 | 1.0 | 2.0 | 0.00 | 0.00 | 0.00 | 83 | 1017.0 |
| 20260507015004 | 51 | 39 | 1.0 | 2.0 | 0.00 | 0.00 | 0.00 | 85 | 1017.0 |
| 20260507014504 | 50 | 75 | 2.0 | 3.0 | 0.00 | 0.00 | 0.00 | 84 | 1016.9 |
| 20260507013504 | 51 | 87 | 2.0 | 2.0 | 0.00 | 0.00 | 0.00 | 83 | 1016.8 |
| 20260507013004 | 51 | 104 | 2.0 | 2.0 | 0.00 | 0.00 | 0.00 | 84 | 1017.0 |
| 20260507012504 | 50 | 109 | 2.0 | 2.0 | 0.00 | 0.00 | 0.00 | 83 | 1016.9 |
| 20260507012004 | 50 | 91 | 1.0 | 2.0 | 0.00 | 0.00 | 0.00 | 81 | 1017.0 |
| 20260507011504 | 51 | 58 | 1.0 | 2.0 | 0.00 | 0.00 | 0.00 | 81 | 1017.0 |
| 20260507010504 | 52 | 0 | 0.0 | 0.0 | 0.00 | 0.00 | 0.00 | 80 | 1017.0 |
| 20260507010004 | 53 | 72 | 1.0 | 2.0 | 0.00 | 0.00 | 0.00 | 81 | 1016.9 |
| 20260507005504 | 52 | 78 | 2.0 | 3.0 | 0.00 | 0.00 | 0.00 | 83 | 1016.7 |
| 20260507005005 | 51 | 83 | 2.0 | 3.0 | 0.00 | 0.00 | 0.00 | 83 | 1016.7 |
| 20260507004505 | 51 | 64 | 2.0 | 2.0 | 0.00 | 0.00 | 0.00 | 82 | 1016.8 |
| 20260507004005 | 52 | 57 | 2.0 | 2.0 | 0.00 | 0.00 | 0.00 | 83 | 1017.0 |
| 20260507003004 | 51 | 1 | 0.0 | 2.0 | 0.00 | 0.00 | 0.00 | 84 | 1016.7 |
| 20260507002504 | 51 | 33 | 1.0 | 2.0 | 0.00 | 0.00 | 0.00 | 81 | 1016.8 |
| 20260507001005 | 53 | 64 | 2.0 | 3.0 | 0.00 | 0.00 | 0.00 | 82 | 1016.8 |
| 20260507000505 | 51 | 66 | 2.0 | 3.0 | 0.00 | 0.00 | 0.00 | 82 | 1016.8 |
| 20260507000005 | 51 | 71 | 1.0 | 2.0 | 0.00 | 0.00 | 0.00 | 82 | 1016.8 |
| 20260506235504 | 52 | 25 | 1.0 | 2.0 | 0.00 | 0.00 | 0.00 | 80 | 1016.9 |
| 20260506235004 | 53 | 16 | 2.0 | 2.0 | 0.00 | 0.00 | 0.00 | 78 | 1016.8 |
| 20260506234504 | 54 | 15 | 2.0 | 2.0 | 0.00 | 0.00 | 0.00 | 79 | 1016.8 |
| 20260506234005 | 53 | 39 | 2.0 | 2.0 | 0.00 | 0.00 | 0.00 | 81 | 1016.8 |
| 20260506233505 | 52 | 74 | 2.0 | 3.0 | 0.00 | 0.00 | 0.00 | 82 | 1016.7 |
| 20260506233004 | 52 | 95 | 2.0 | 3.0 | 0.00 | 0.00 | 0.00 | 82 | 1016.7 |
| 20260506232504 | 52 | 85 | 2.0 | 2.0 | 0.00 | 0.00 | 0.00 | 82 | 1016.6 |
| 20260506232004 | 52 | 97 | 2.0 | 2.0 | 0.00 | 0.00 | 0.00 | 82 | 1016.9 |
| 20260506231504 | 52 | 125 | 2.0 | 2.0 | 0.00 | 0.00 | 0.00 | 83 | 1017.0 |
| 20260506231005 | 52 | 137 | 2.0 | 3.0 | 0.00 | 0.00 | 0.00 | 84 | 1016.9 |
| 20260506230504 | 51 | 130 | 1.0 | 3.0 | 0.00 | 0.00 | 0.00 | 83 | 1016.8 |
| 20260506230004 | 51 | 101 | 1.0 | 2.0 | 0.00 | 0.00 | 0.00 | 82 | 1017.1 |
| 20260506225504 | 52 | 98 | 2.0 | 2.0 | 0.00 | 0.00 | 0.00 | 81 | 1017.1 |
| 20260506225004 | 53 | 91 | 1.0 | 2.0 | 0.00 | 0.00 | 0.00 | 80 | 1017.0 |
| 20260506224004 | 54 | 32 | 2.0 | 3.0 | 0.00 | 0.00 | 0.00 | 81 | 1017.1 |
| 20260506223004 | 52 | 109 | 3.0 | 4.0 | 0.00 | 0.00 | 0.00 | 81 | 1017.1 |
| 20260506222504 | 53 | 132 | 3.0 | 4.0 | 0.00 | 0.00 | 0.00 | 81 | 1017.1 |
| 20260506221504 | 54 | 198 | 1.0 | 2.0 | 0.00 | 0.00 | 0.00 | 79 | 1017.3 |
| 20260506220505 | 55 | 35 | 2.0 | 2.0 | 0.00 | 0.00 | 0.00 | 74 | 1017.5 |
| 20260506220005 | 55 | 22 | 1.0 | 2.0 | 0.00 | 0.00 | 0.00 | 74 | 1017.4 |
| 20260506215504 | 55 | 347 | 1.0 | 4.0 | 0.00 | 0.00 | 0.00 | 76 | 1017.5 |
| 20260506214505 | 54 | 41 | 2.0 | 4.0 | 0.00 | 0.00 | 0.00 | 78 | 1017.4 |
| 20260506213005 | 54 | 79 | 2.0 | 2.0 | 0.00 | 0.00 | 0.00 | 80 | 1017.4 |
| 20260506212504 | 54 | 97 | 3.0 | 3.0 | 0.00 | 0.00 | 0.00 | 81 | 1017.4 |
| 20260506212004 | 54 | 106 | 3.0 | 3.0 | 0.00 | 0.00 | 0.00 | 80 | 1017.4 |
| 20260506211504 | 54 | 120 | 2.0 | 3.0 | 0.00 | 0.00 | 0.00 | 82 | 1017.3 |
| 20260506211005 | 53 | 126 | 2.0 | 2.0 | 0.00 | 0.00 | 0.00 | 82 | 1017.4 |
| 20260506210504 | 53 | 115 | 1.0 | 2.0 | 0.00 | 0.00 | 0.00 | 82 | 1017.5 |
| 20260506210009 | 53 | 100 | 0.0 | 2.0 | 0.00 | 0.00 | 0.00 | 81 | 1017.5 |
| 20260506205504 | 54 | 102 | 0.0 | 2.0 | 0.00 | 0.00 | 0.00 | 81 | 1017.6 |
| 20260506205004 | 54 | 173 | 0.0 | 2.0 | 0.00 | 0.00 | 0.00 | 81 | 1017.6 |
| 20260506204504 | 54 | 147 | 1.0 | 2.0 | 0.00 | 0.00 | 0.00 | 81 | 1017.5 |
| 20260506204007 | 54 | 139 | 1.0 | 2.0 | 0.00 | 0.00 | 0.00 | 80 | 1017.6 |
| 20260506203507 | 54 | 135 | 1.0 | 2.0 | 0.00 | 0.00 | 0.00 | 77 | 1017.5 |
| 20260506202505 | 55 | 191 | 1.0 | 2.0 | 0.00 | 0.00 | 0.00 | 74 | 1017.7 |
| 20260506202005 | 56 | 280 | 1.0 | 2.0 | 0.00 | 0.00 | 0.00 | 73 | 1017.6 |
| 20260506201505 | 56 | 308 | 1.0 | 2.0 | 0.00 | 0.00 | 0.00 | 74 | 1017.6 |
| 20260506195504 | 58 | 45 | 2.0 | 2.0 | 0.00 | 0.00 | 0.00 | 70 | 1017.7 |
| 20260506195004 | 58 | 45 | 1.0 | 2.0 | 0.00 | 0.00 | 0.00 | 69 | 1017.5 |
| 20260506194005 | 58 | 51 | 2.0 | 2.0 | 0.00 | 0.00 | 0.00 | 71 | 1017.5 |
| 20260506193504 | 58 | 49 | 2.0 | 2.0 | 0.00 | 0.00 | 0.00 | 70 | 1017.3 |
| 20260506193004 | 58 | 41 | 2.0 | 2.0 | 0.00 | 0.00 | 0.00 | 70 | 1017.3 |
| 20260506192504 | 58 | 40 | 2.0 | 2.0 | 0.00 | 0.00 | 0.00 | 70 | 1017.2 |
| 20260506192005 | 58 | 49 | 1.0 | 2.0 | 0.00 | 0.00 | 0.00 | 71 | 1017.5 |
| 20260506191505 | 58 | 80 | 1.0 | 2.0 | 0.00 | 0.00 | 0.00 | 72 | 1017.4 |
| 20260506191005 | 58 | 108 | 2.0 | 2.0 | 0.00 | 0.00 | 0.00 | 71 | 1017.2 |
| 20260506190505 | 59 | 129 | 2.0 | 2.0 | 0.00 | 0.00 | 0.00 | 71 | 1017.2 |
| 20260506190006 | 59 | 131 | 2.0 | 2.0 | 0.00 | 0.00 | 0.00 | 71 | 1017.1 |
| 20260506185505 | 60 | 133 | 2.0 | 2.0 | 0.00 | 0.00 | 0.00 | 70 | 1017.1 |
| 20260506185005 | 60 | 137 | 1.0 | 2.0 | 0.00 | 0.00 | 0.00 | 68 | 1017.0 |
| 20260506184505 | 60 | 156 | 1.0 | 2.0 | 0.00 | 0.00 | 0.00 | 67 | 1017.0 |
| 20260506184005 | 60 | 116 | 1.0 | 3.0 | 0.00 | 0.00 | 0.00 | 69 | 1017.0 |
| 20260506183505 | 61 | 101 | 2.0 | 3.0 | 0.00 | 0.00 | 0.00 | 66 | 1016.9 |
| 20260506183005 | 61 | 112 | 2.0 | 3.0 | 0.00 | 0.00 | 0.00 | 67 | 1016.9 |
| 20260506182505 | 60 | 130 | 2.0 | 3.0 | 0.00 | 0.00 | 0.00 | 69 | 1016.8 |
| 20260506182006 | 60 | 134 | 2.0 | 3.0 | 0.00 | 0.00 | 0.00 | 70 | 1016.7 |
| 20260506181505 | 61 | 128 | 2.0 | 3.0 | 0.00 | 0.00 | 0.00 | 69 | 1016.7 |
| 20260506180505 | 64 | 34 | 3.0 | 4.0 | 0.00 | 0.00 | 0.00 | 58 | 1016.6 |
| 20260506180006 | 64 | 43 | 3.0 | 4.0 | 0.00 | 0.00 | 0.00 | 57 | 1016.7 |
| 20260506175505 | 64 | 45 | 4.0 | 4.0 | 0.00 | 0.00 | 0.00 | 58 | 1016.7 |
| 20260506175005 | 64 | 46 | 4.0 | 4.0 | 0.00 | 0.00 | 0.00 | 58 | 1016.7 |
| 20260506174505 | 64 | 28 | 3.0 | 4.0 | 0.00 | 0.00 | 0.00 | 60 | 1016.5 |
| 20260506174006 | 64 | 1 | 3.0 | 4.0 | 0.00 | 0.00 | 0.00 | 60 | 1016.5 |
| 20260506173505 | 64 | 22 | 3.0 | 4.0 | 0.00 | 0.00 | 0.00 | 60 | 1016.5 |
| 20260506173005 | 64 | 48 | 2.0 | 4.0 | 0.00 | 0.00 | 0.00 | 61 | 1016.6 |
| 20260506172505 | 65 | 42 | 2.0 | 3.0 | 0.00 | 0.00 | 0.00 | 60 | 1016.4 |
| 20260506172005 | 66 | 34 | 2.0 | 3.0 | 0.00 | 0.00 | 0.00 | 56 | 1016.2 |
| 20260506171005 | 67 | 285 | 2.0 | 3.0 | 0.00 | 0.00 | 0.00 | 56 | 1016.4 |
| 20260506170505 | 67 | 291 | 3.0 | 3.0 | 0.00 | 0.00 | 0.00 | 55 | 1016.3 |
| 20260506170005 | 68 | 304 | 3.0 | 4.0 | 0.00 | 0.00 | 0.00 | 54 | 1016.1 |
| 20260506165506 | 68 | 311 | 4.0 | 4.0 | 0.00 | 0.00 | 0.00 | 53 | 1016.3 |
| 20260506165005 | 69 | 311 | 4.0 | 4.0 | 0.00 | 0.00 | 0.00 | 51 | 1016.3 |
| 20260506164505 | 69 | 312 | 3.0 | 4.0 | 0.00 | 0.00 | 0.00 | 51 | 1016.0 |